Terminal Aerodrome Forecast
Issued by NWS

Home | Current Version | Previous Version | Text Only | Print | Product List | Glossary On
Versions: 1 2 3 4 5 6 7 8 9 10 11 12 13 14 15 16 17 18 19 20 21 22 23 24 25 26 27 28 29 30 31 32 33 34 35
000
FTUS43 KDDC 250500 RRA
TAFGCK
TAF
KGCK 250544Z 2506/2606 17013KT P6SM FEW200
     FM251200 22018G25KT P6SM SCT200
     FM251900 34012KT P6SM SCT200
     FM252100 01012KT P6SM SCT200=

USA.gov is the U.S. government's official web portal to all federal, state and local government web resources and services.